Time,TemperatureF,DewpointF,PressureIn,WindDirection,WindDirectionDegrees,WindSpeedMPH,WindSpeedGustMPH,Humidity,HourlyPrecipIn,Conditions,Clouds,dailyrainin,SoftwareType,DateUTC
2013-06-05 00:01:00,59.5,50.2,30.09,NNE,23,8.0,8.0,71,0.00,,,0.00,meteohub,2013-06-05 04:01:00,
2013-06-05 00:02:00,59.5,50.2,30.09,NNE,23,8.0,8.0,71,0.00,,,0.00,meteohub,2013-06-05 04:02:00,
2013-06-05 00:04:00,59.4,50.0,30.10,NNW,338,4.0,5.0,71,0.00,,,0.00,meteohub,2013-06-05 04:04:00,
2013-06-05 00:07:00,59.4,50.0,30.10,NNW,338,4.0,8.0,71,0.00,,,0.00,meteohub,2013-06-05 04:07:00,
2013-06-05 00:12:00,59.0,50.4,30.10,NNE,23,6.0,8.0,73,0.00,,,0.00,meteohub,2013-06-05 04:12:00,
2013-06-05 00:17:00,58.6,50.0,30.10,NNE,23,3.0,8.0,73,0.00,,,0.00,meteohub,2013-06-05 04:17:00,
2013-06-05 00:22:00,58.6,50.7,30.10,NE,45,4.0,6.0,75,0.00,,,0.00,meteohub,2013-06-05 04:22:00,
2013-06-05 00:28:00,58.3,50.4,30.10,NNW,338,3.0,6.0,75,0.00,,,0.00,meteohub,2013-06-05 04:28:00,
2013-06-05 00:33:00,57.9,50.4,30.10,NE,45,4.0,5.0,76,0.00,,,0.00,meteohub,2013-06-05 04:33:00,
2013-06-05 00:38:00,57.7,50.5,30.10,NNE,23,4.0,4.0,77,0.00,,,0.00,meteohub,2013-06-05 04:38:00,
2013-06-05 00:43:00,57.7,50.5,30.10,North,0,5.0,5.0,77,0.00,,,0.00,meteohub,2013-06-05 04:43:00,
2013-06-05 00:48:00,57.7,50.5,30.10,NNE,23,5.0,5.0,77,0.00,,,0.00,meteohub,2013-06-05 04:48:00,
2013-06-05 00:53:00,57.6,50.0,30.10,NE,45,9.0,9.0,76,0.00,,,0.00,meteohub,2013-06-05 04:53:00,
2013-06-05 00:58:00,57.7,49.8,30.10,North,0,3.0,6.0,75,0.00,,,0.00,meteohub,2013-06-05 04:58:00,
2013-06-05 01:03:00,57.7,49.8,30.10,NNW,338,5.0,9.0,75,0.00,,,0.00,meteohub,2013-06-05 05:03:00,
2013-06-05 01:09:00,57.7,49.8,30.10,ENE,68,3.0,9.0,75,0.00,,,0.00,meteohub,2013-06-05 05:09:00,
2013-06-05 01:14:00,57.6,50.0,30.10,NE,45,5.0,8.0,76,0.00,,,0.00,meteohub,2013-06-05 05:14:00,
2013-06-05 01:19:00,57.2,50.0,30.10,ESE,113,0.0,6.0,77,0.00,,,0.00,meteohub,2013-06-05 05:19:00,
2013-06-05 01:24:00,57.0,49.8,30.11,NE,45,4.0,6.0,77,0.00,,,0.00,meteohub,2013-06-05 05:24:00,
2013-06-05 01:29:00,57.0,50.2,30.11,NNW,338,2.0,6.0,78,0.00,,,0.00,meteohub,2013-06-05 05:29:00,
2013-06-05 01:34:00,57.0,50.2,30.11,North,0,5.0,6.0,78,0.00,,,0.00,meteohub,2013-06-05 05:34:00,
2013-06-05 01:39:00,57.0,50.2,30.11,NNW,338,6.0,6.0,78,0.00,,,0.00,meteohub,2013-06-05 05:39:00,
2013-06-05 01:44:00,56.7,49.8,30.11,NNW,338,5.0,6.0,78,0.00,,,0.00,meteohub,2013-06-05 05:44:00,
2013-06-05 01:49:00,56.7,49.8,30.11,SE,135,6.0,6.0,78,0.00,,,0.00,meteohub,2013-06-05 05:49:00,
2013-06-05 01:55:00,56.8,50.0,30.11,South,180,2.0,11.0,78,0.00,,,0.00,meteohub,2013-06-05 05:55:00,
2013-06-05 02:00:00,56.7,49.8,30.11,East,90,3.0,11.0,78,0.00,,,0.00,meteohub,2013-06-05 06:00:00,
2013-06-05 02:05:00,56.5,49.6,30.12,ENE,68,3.0,6.0,78,0.00,,,0.00,meteohub,2013-06-05 06:05:00,
2013-06-05 02:10:00,56.7,49.8,30.12,NNE,23,4.0,6.0,78,0.00,,,0.00,meteohub,2013-06-05 06:10:00,
2013-06-05 02:16:00,56.7,49.8,30.12,SE,135,9.0,10.0,78,0.00,,,0.00,meteohub,2013-06-05 06:16:00,
2013-06-05 02:21:00,56.3,49.5,30.12,NE,45,6.0,10.0,78,0.00,,,0.00,meteohub,2013-06-05 06:21:00,
2013-06-05 02:26:00,56.3,49.5,30.11,ENE,68,8.0,10.0,78,0.00,,,0.00,meteohub,2013-06-05 06:26:00,
2013-06-05 02:31:00,56.3,49.5,30.11,ESE,113,5.0,9.0,78,0.00,,,0.00,meteohub,2013-06-05 06:31:00,
2013-06-05 02:36:00,56.3,49.5,30.11,ENE,68,8.0,8.0,78,0.00,,,0.00,meteohub,2013-06-05 06:36:00,
2013-06-05 02:41:00,56.3,49.5,30.11,NE,45,10.0,10.0,78,0.00,,,0.00,meteohub,2013-06-05 06:41:00,
2013-06-05 02:47:00,56.7,49.8,30.12,NE,45,9.0,10.0,78,0.00,,,0.00,meteohub,2013-06-05 06:47:00,
2013-06-05 02:52:00,56.7,49.8,30.12,ENE,68,8.0,11.0,78,0.00,,,0.00,meteohub,2013-06-05 06:52:00,
2013-06-05 02:57:00,56.5,49.6,30.12,ENE,68,7.0,11.0,78,0.00,,,0.00,meteohub,2013-06-05 06:57:00,
2013-06-05 03:02:00,56.5,49.6,30.12,NE,45,10.0,11.0,78,0.00,,,0.00,meteohub,2013-06-05 07:02:00,
2013-06-05 03:07:00,56.5,49.6,30.12,East,90,7.0,10.0,78,0.00,,,0.00,meteohub,2013-06-05 07:07:00,
2013-06-05 03:12:00,56.5,49.6,30.12,ENE,68,6.0,10.0,78,0.00,,,0.00,meteohub,2013-06-05 07:12:00,
2013-06-05 03:17:00,56.5,49.6,30.12,ENE,68,6.0,10.0,78,0.00,,,0.00,meteohub,2013-06-05 07:17:00,
2013-06-05 03:22:00,56.5,50.0,30.12,East,90,5.0,7.0,79,0.00,,,0.00,meteohub,2013-06-05 07:22:00,
2013-06-05 03:27:00,56.3,49.8,30.14,ENE,68,6.0,7.0,79,0.00,,,0.00,meteohub,2013-06-05 07:27:00,
2013-06-05 03:32:00,56.3,49.8,30.14,East,90,7.0,7.0,79,0.00,,,0.00,meteohub,2013-06-05 07:32:00,
2013-06-05 03:37:00,56.1,49.6,30.14,ENE,68,4.0,6.0,79,0.00,,,0.00,meteohub,2013-06-05 07:37:00,
2013-06-05 03:42:00,56.3,49.8,30.14,NE,45,7.0,7.0,79,0.00,,,0.00,meteohub,2013-06-05 07:42:00,
2013-06-05 03:48:00,56.3,49.8,30.14,East,90,5.0,7.0,79,0.00,,,0.00,meteohub,2013-06-05 07:48:00,
2013-06-05 03:53:00,56.3,49.8,30.14,ENE,68,5.0,8.0,79,0.00,,,0.00,meteohub,2013-06-05 07:53:00,
2013-06-05 03:58:00,55.9,49.5,30.14,ENE,68,8.0,8.0,79,0.00,,,0.00,meteohub,2013-06-05 07:58:00,
2013-06-05 04:03:00,55.9,49.5,30.14,ESE,113,5.0,8.0,79,0.00,,,0.00,meteohub,2013-06-05 08:03:00,
2013-06-05 04:09:00,55.8,49.6,30.14,East,90,4.0,8.0,80,0.00,,,0.00,meteohub,2013-06-05 08:09:00,
2013-06-05 04:14:00,55.8,49.3,30.14,East,90,4.0,8.0,79,0.00,,,0.00,meteohub,2013-06-05 08:14:00,
2013-06-05 04:19:00,55.8,49.3,30.14,ESE,113,4.0,6.0,79,0.00,,,0.00,meteohub,2013-06-05 08:19:00,
2013-06-05 04:24:00,55.6,49.5,30.15,ENE,68,4.0,6.0,80,0.00,,,0.00,meteohub,2013-06-05 08:24:00,
2013-06-05 04:29:00,55.6,49.5,30.15,ESE,113,2.0,6.0,80,0.00,,,0.00,meteohub,2013-06-05 08:29:00,
2013-06-05 04:34:00,55.4,49.6,30.15,East,90,4.0,5.0,81,0.00,,,0.00,meteohub,2013-06-05 08:34:00,
2013-06-05 04:40:00,55.6,49.8,30.15,ENE,68,4.0,5.0,81,0.00,,,0.00,meteohub,2013-06-05 08:40:00,
2013-06-05 04:45:00,55.6,49.8,30.15,ESE,113,3.0,6.0,81,0.00,,,0.00,meteohub,2013-06-05 08:45:00,
2013-06-05 04:50:00,55.2,49.1,30.15,ESE,113,5.0,6.0,80,0.00,,,0.00,meteohub,2013-06-05 08:50:00,
2013-06-05 04:55:00,55.2,49.1,30.15,ENE,68,5.0,6.0,80,0.00,,,0.00,meteohub,2013-06-05 08:55:00,
2013-06-05 05:00:00,55.2,49.1,30.15,ENE,68,6.0,6.0,80,0.00,,,0.00,meteohub,2013-06-05 09:00:00,
2013-06-05 05:06:00,55.2,49.1,30.15,ENE,68,3.0,6.0,80,0.00,,,0.00,meteohub,2013-06-05 09:06:00,
2013-06-05 05:11:00,55.2,49.5,30.15,NE,45,5.0,6.0,81,0.00,,,0.00,meteohub,2013-06-05 09:11:00,
2013-06-05 05:16:00,55.0,49.3,30.15,ENE,68,4.0,6.0,81,0.00,,,0.00,meteohub,2013-06-05 09:16:00,
2013-06-05 05:22:00,55.0,49.3,30.15,ESE,113,4.0,5.0,81,0.00,,,0.00,meteohub,2013-06-05 09:22:00,
2013-06-05 05:27:00,55.0,49.3,30.16,ENE,68,5.0,5.0,81,0.00,,,0.00,meteohub,2013-06-05 09:27:00,
2013-06-05 05:32:00,55.0,49.3,30.16,East,90,4.0,5.0,81,0.00,,,0.00,meteohub,2013-06-05 09:32:00,
2013-06-05 05:37:00,55.0,49.3,30.16,ENE,68,5.0,5.0,81,0.00,,,0.00,meteohub,2013-06-05 09:37:00,
2013-06-05 05:42:00,55.0,49.3,30.16,ENE,68,5.0,5.0,81,0.00,,,0.00,meteohub,2013-06-05 09:42:00,
2013-06-05 05:47:00,55.0,48.9,30.16,ENE,68,7.0,7.0,80,0.00,,,0.00,meteohub,2013-06-05 09:47:00,
2013-06-05 05:52:00,55.2,49.1,30.16,ENE,68,7.0,7.0,80,0.00,,,0.00,meteohub,2013-06-05 09:52:00,
2013-06-05 05:57:00,55.2,49.1,30.16,ENE,68,4.0,7.0,80,0.00,,,0.00,meteohub,2013-06-05 09:57:00,
2013-06-05 06:02:00,55.2,49.1,30.16,East,90,5.0,7.0,80,0.00,,,0.00,meteohub,2013-06-05 10:02:00,
2013-06-05 06:07:00,55.2,49.1,30.17,ESE,113,5.0,7.0,80,0.00,,,0.00,meteohub,2013-06-05 10:07:00,
2013-06-05 06:12:00,55.2,49.1,30.17,ENE,68,3.0,5.0,80,0.00,,,0.00,meteohub,2013-06-05 10:12:00,
2013-06-05 06:17:00,55.4,49.3,30.17,NE,45,4.0,5.0,80,0.00,,,0.00,meteohub,2013-06-05 10:17:00,
2013-06-05 06:23:00,55.6,49.5,30.17,ESE,113,2.0,5.0,80,0.00,,,0.00,meteohub,2013-06-05 10:23:00,
2013-06-05 06:28:00,55.6,49.8,30.17,ENE,68,4.0,5.0,81,0.00,,,0.00,meteohub,2013-06-05 10:28:00,
2013-06-05 06:33:00,55.6,49.8,30.17,NE,45,2.0,4.0,81,0.00,,,0.00,meteohub,2013-06-05 10:33:00,
2013-06-05 06:38:00,55.8,50.0,30.17,East,90,3.0,4.0,81,0.00,,,0.00,meteohub,2013-06-05 10:38:00,
2013-06-05 06:43:00,55.8,50.0,30.18,NE,45,2.0,4.0,81,0.00,,,0.00,meteohub,2013-06-05 10:43:00,
2013-06-05 06:48:00,55.8,50.0,30.18,ENE,68,2.0,4.0,81,0.00,,,0.00,meteohub,2013-06-05 10:48:00,
2013-06-05 06:53:00,55.8,50.0,30.18,ENE,68,3.0,4.0,81,0.00,,,0.00,meteohub,2013-06-05 10:53:00,
2013-06-05 06:59:00,55.8,50.4,30.18,ENE,68,1.0,4.0,82,0.00,,,0.00,meteohub,2013-06-05 10:59:00,
2013-06-05 07:04:00,55.9,50.5,30.18,ESE,113,3.0,4.0,82,0.00,,,0.00,meteohub,2013-06-05 11:04:00,
2013-06-05 07:09:00,56.3,50.5,30.18,NE,45,3.0,4.0,81,0.00,,,0.00,meteohub,2013-06-05 11:09:00,
2013-06-05 07:14:00,56.3,50.5,30.18,ENE,68,3.0,4.0,81,0.00,,,0.00,meteohub,2013-06-05 11:14:00,
2013-06-05 07:19:00,56.3,50.5,30.18,NNE,23,2.0,4.0,81,0.00,,,0.00,meteohub,2013-06-05 11:19:00,
2013-06-05 07:24:00,56.7,50.9,30.19,South,180,2.0,4.0,81,0.00,,,0.00,meteohub,2013-06-05 11:24:00,
2013-06-05 07:29:00,56.7,50.9,30.19,ENE,68,3.0,3.0,81,0.00,,,0.00,meteohub,2013-06-05 11:29:00,
2013-06-05 07:34:00,57.0,51.3,30.19,NE,45,2.0,3.0,81,0.00,,,0.00,meteohub,2013-06-05 11:34:00,
2013-06-05 07:40:00,56.8,51.1,30.19,NW,315,0.0,3.0,81,0.00,,,0.00,meteohub,2013-06-05 11:40:00,
2013-06-05 07:45:00,56.8,51.1,30.19,NE,45,2.0,3.0,81,0.00,,,0.00,meteohub,2013-06-05 11:45:00,
2013-06-05 07:50:00,57.0,51.3,30.19,NE,45,2.0,2.0,81,0.00,,,0.00,meteohub,2013-06-05 11:50:00,
2013-06-05 07:55:00,57.2,51.4,30.19,ENE,68,5.0,5.0,81,0.00,,,0.00,meteohub,2013-06-05 11:55:00,
2013-06-05 08:00:00,57.4,51.3,30.19,East,90,2.0,5.0,80,0.00,,,0.00,meteohub,2013-06-05 12:00:00,
2013-06-05 08:05:00,57.7,51.6,30.20,ENE,68,4.0,5.0,80,0.00,,,0.00,meteohub,2013-06-05 12:05:00,
2013-06-05 08:10:00,57.7,51.3,30.20,ENE,68,5.0,5.0,79,0.00,,,0.00,meteohub,2013-06-05 12:10:00,
2013-06-05 08:15:00,57.7,51.3,30.20,NE,45,4.0,5.0,79,0.00,,,0.00,meteohub,2013-06-05 12:15:00,
2013-06-05 08:21:00,58.1,51.3,30.20,East,90,4.0,5.0,78,0.00,,,0.00,meteohub,2013-06-05 12:21:00,
2013-06-05 08:26:00,58.5,51.6,30.21,East,90,3.0,5.0,78,0.00,,,0.00,meteohub,2013-06-05 12:26:00,
2013-06-05 08:31:00,58.5,52.0,30.21,NNW,338,0.0,4.0,79,0.00,,,0.00,meteohub,2013-06-05 12:31:00,
2013-06-05 08:36:00,58.8,51.6,30.21,NW,315,0.0,4.0,77,0.00,,,0.00,meteohub,2013-06-05 12:36:00,
2013-06-05 08:41:00,58.8,51.3,30.21,ESE,113,0.0,3.0,76,0.00,,,0.00,meteohub,2013-06-05 12:41:00,
2013-06-05 08:46:00,59.0,51.4,30.22,ENE,68,1.0,1.0,76,0.00,,,0.00,meteohub,2013-06-05 12:46:00,
2013-06-05 08:51:00,59.2,51.6,30.22,SE,135,3.0,3.0,76,0.00,,,0.00,meteohub,2013-06-05 12:51:00,
2013-06-05 08:57:00,59.4,51.8,30.22,SE,135,2.0,3.0,76,0.00,,,0.00,meteohub,2013-06-05 12:57:00,
2013-06-05 09:02:00,59.9,52.0,30.22,NNE,23,0.0,3.0,75,0.00,,,0.00,meteohub,2013-06-05 13:02:00,
2013-06-05 09:07:00,59.9,51.6,30.22,ESE,113,0.0,3.0,74,0.00,,,0.00,meteohub,2013-06-05 13:07:00,
2013-06-05 09:12:00,60.1,51.4,30.22,ENE,68,2.0,3.0,73,0.00,,,0.00,meteohub,2013-06-05 13:12:00,
2013-06-05 09:17:00,60.4,51.1,30.22,ENE,68,3.0,3.0,71,0.00,,,0.00,meteohub,2013-06-05 13:17:00,
2013-06-05 09:22:00,60.6,50.7,30.22,ENE,68,2.0,3.0,70,0.00,,,0.00,meteohub,2013-06-05 13:22:00,
2013-06-05 09:28:00,60.8,50.5,30.22,ESE,113,2.0,3.0,69,0.00,,,0.00,meteohub,2013-06-05 13:28:00,
2013-06-05 09:33:00,61.0,51.4,30.22,ENE,68,2.0,3.0,71,0.00,,,0.00,meteohub,2013-06-05 13:33:00,
2013-06-05 09:38:00,61.7,51.4,30.22,NE,45,4.0,4.0,69,0.00,,,0.00,meteohub,2013-06-05 13:38:00,
2013-06-05 09:43:00,61.7,51.1,30.22,NW,315,2.0,3.0,68,0.00,,,0.00,meteohub,2013-06-05 13:43:00,
2013-06-05 09:48:00,62.2,50.4,30.22,ENE,68,2.0,4.0,65,0.00,,,0.00,meteohub,2013-06-05 13:48:00,
2013-06-05 09:54:00,62.2,50.7,30.22,South,180,2.0,4.0,66,0.00,,,0.00,meteohub,2013-06-05 13:54:00,
2013-06-05 09:59:00,62.6,51.1,30.22,WSW,248,2.0,2.0,66,0.00,,,0.00,meteohub,2013-06-05 13:59:00,
2013-06-05 10:04:00,63.3,51.8,30.22,WSW,248,2.0,4.0,66,0.00,,,0.00,meteohub,2013-06-05 14:04:00,
2013-06-05 10:10:00,63.9,52.3,30.22,ESE,113,3.0,4.0,66,0.00,,,0.00,meteohub,2013-06-05 14:10:00,
2013-06-05 10:15:00,64.2,52.7,30.22,South,180,4.0,4.0,66,0.00,,,0.00,meteohub,2013-06-05 14:15:00,
2013-06-05 10:20:00,64.6,53.4,30.22,SW,225,6.0,6.0,67,0.00,,,0.00,meteohub,2013-06-05 14:20:00,
2013-06-05 10:25:00,65.5,53.8,30.22,SW,225,5.0,6.0,66,0.00,,,0.00,meteohub,2013-06-05 14:25:00,
2013-06-05 10:30:00,66.0,54.3,30.22,WSW,248,4.0,6.0,66,0.00,,,0.00,meteohub,2013-06-05 14:30:00,
2013-06-05 10:36:00,65.8,53.8,30.22,SW,225,7.0,7.0,65,0.00,,,0.00,meteohub,2013-06-05 14:36:00,
2013-06-05 10:42:00,66.2,54.5,30.22,SSW,203,8.0,8.0,66,0.00,,,0.00,meteohub,2013-06-05 14:42:00,
2013-06-05 10:47:00,66.4,53.4,30.23,WSW,248,8.0,9.0,63,0.00,,,0.00,meteohub,2013-06-05 14:47:00,
2013-06-05 10:52:00,66.6,53.6,30.23,SSW,203,9.0,9.0,63,0.00,,,0.00,meteohub,2013-06-05 14:52:00,
2013-06-05 10:57:00,66.7,53.8,30.23,WSW,248,10.0,10.0,63,0.00,,,0.00,meteohub,2013-06-05 14:57:00,
2013-06-05 11:02:00,66.7,54.1,30.23,SSW,203,6.0,10.0,64,0.00,,,0.00,meteohub,2013-06-05 15:02:00,
2013-06-05 11:07:00,66.7,53.8,30.23,WSW,248,5.0,10.0,63,0.00,,,0.00,meteohub,2013-06-05 15:07:00,
2013-06-05 11:12:00,67.1,54.5,30.23,SW,225,9.0,10.0,64,0.00,,,0.00,meteohub,2013-06-05 15:12:00,
2013-06-05 11:17:00,67.5,54.9,30.23,SW,225,8.0,9.0,64,0.00,,,0.00,meteohub,2013-06-05 15:17:00,
2013-06-05 11:22:00,67.5,54.0,30.23,SW,225,7.0,9.0,62,0.00,,,0.00,meteohub,2013-06-05 15:22:00,
2013-06-05 11:27:00,67.3,52.9,30.23,South,180,11.0,11.0,60,0.00,,,0.00,meteohub,2013-06-05 15:27:00,
2013-06-05 11:32:00,67.5,53.6,30.23,SSW,203,7.0,11.0,61,0.00,,,0.00,meteohub,2013-06-05 15:32:00,
2013-06-05 11:37:00,67.5,53.6,30.23,South,180,7.0,11.0,61,0.00,,,0.00,meteohub,2013-06-05 15:37:00,
2013-06-05 11:43:00,67.8,53.4,30.23,South,180,9.0,11.0,60,0.00,,,0.00,meteohub,2013-06-05 15:43:00,
2013-06-05 11:48:00,67.8,54.0,30.23,WSW,248,9.0,9.0,61,0.00,,,0.00,meteohub,2013-06-05 15:48:00,
2013-06-05 11:53:00,67.8,53.4,30.23,South,180,7.0,9.0,60,0.00,,,0.00,meteohub,2013-06-05 15:53:00,
2013-06-05 11:58:00,68.2,53.8,30.23,West,270,8.0,9.0,60,0.00,,,0.00,meteohub,2013-06-05 15:58:00,
2013-06-05 12:03:00,68.4,53.4,30.22,SW,225,11.0,11.0,59,0.00,,,0.00,meteohub,2013-06-05 16:03:00,
2013-06-05 12:09:00,68.4,53.4,30.22,SW,225,11.0,11.0,59,0.00,,,0.00,meteohub,2013-06-05 16:09:00,
2013-06-05 12:14:00,68.7,53.8,30.22,SW,225,11.0,11.0,59,0.00,,,0.00,meteohub,2013-06-05 16:14:00,
2013-06-05 12:19:00,68.5,53.6,30.22,SW,225,11.0,11.0,59,0.00,,,0.00,meteohub,2013-06-05 16:19:00,
2013-06-05 12:24:00,68.7,53.8,30.21,WSW,248,11.0,11.0,59,0.00,,,0.00,meteohub,2013-06-05 16:24:00,
2013-06-05 12:29:00,68.7,53.8,30.21,SSW,203,11.0,11.0,59,0.00,,,0.00,meteohub,2013-06-05 16:29:00,
2013-06-05 12:34:00,68.7,53.4,30.21,SW,225,13.0,13.0,58,0.00,,,0.00,meteohub,2013-06-05 16:34:00,
2013-06-05 12:39:00,68.9,54.0,30.21,SW,225,13.0,13.0,59,0.00,,,0.00,meteohub,2013-06-05 16:39:00,
2013-06-05 12:44:00,68.7,53.4,30.21,SW,225,11.0,13.0,58,0.00,,,0.00,meteohub,2013-06-05 16:44:00,
2013-06-05 12:50:00,69.3,53.8,30.21,SW,225,11.0,13.0,58,0.00,,,0.00,meteohub,2013-06-05 16:50:00,
2013-06-05 12:55:00,69.1,53.2,30.21,South,180,11.0,14.0,57,0.00,,,0.00,meteohub,2013-06-05 16:55:00,
2013-06-05 13:00:00,69.3,53.8,30.21,SW,225,15.0,15.0,58,0.00,,,0.00,meteohub,2013-06-05 17:00:00,
2013-06-05 13:05:00,69.3,53.4,30.20,SSW,203,14.0,15.0,57,0.00,,,0.00,meteohub,2013-06-05 17:05:00,
2013-06-05 13:10:00,69.6,54.1,30.20,SW,225,13.0,15.0,58,0.00,,,0.00,meteohub,2013-06-05 17:10:00,
2013-06-05 13:15:00,69.8,54.3,30.20,SW,225,13.0,14.0,58,0.00,,,0.00,meteohub,2013-06-05 17:15:00,
2013-06-05 13:20:00,70.2,53.2,30.20,SW,225,16.0,16.0,55,0.00,,,0.00,meteohub,2013-06-05 17:20:00,
2013-06-05 13:25:00,70.3,53.4,30.20,WSW,248,14.0,16.0,55,0.00,,,0.00,meteohub,2013-06-05 17:25:00,
2013-06-05 13:31:00,70.7,53.8,30.20,SW,225,14.0,16.0,55,0.00,,,0.00,meteohub,2013-06-05 17:31:00,
2013-06-05 13:36:00,70.9,54.3,30.20,SW,225,15.0,16.0,56,0.00,,,0.00,meteohub,2013-06-05 17:36:00,
2013-06-05 13:41:00,70.9,54.3,30.20,WSW,248,15.0,15.0,56,0.00,,,0.00,meteohub,2013-06-05 17:41:00,
2013-06-05 13:46:00,71.1,54.5,30.20,SSW,203,15.0,15.0,56,0.00,,,0.00,meteohub,2013-06-05 17:46:00,
2013-06-05 13:51:00,71.1,54.5,30.20,WSW,248,14.0,15.0,56,0.00,,,0.00,meteohub,2013-06-05 17:51:00,
2013-06-05 13:56:00,71.4,54.9,30.20,SSW,203,16.0,16.0,56,0.00,,,0.00,meteohub,2013-06-05 17:56:00,
2013-06-05 14:02:00,71.4,54.9,30.20,South,180,15.0,17.0,56,0.00,,,0.00,meteohub,2013-06-05 18:02:00,
2013-06-05 14:07:00,71.8,54.7,30.20,SW,225,12.0,17.0,55,0.00,,,0.00,meteohub,2013-06-05 18:07:00,
2013-06-05 14:12:00,72.1,54.5,30.20,WSW,248,12.0,16.0,54,0.00,,,0.00,meteohub,2013-06-05 18:12:00,
2013-06-05 14:17:00,72.0,54.9,30.20,SW,225,9.0,15.0,55,0.00,,,0.00,meteohub,2013-06-05 18:17:00,
2013-06-05 14:22:00,71.8,54.3,30.19,WSW,248,13.0,16.0,54,0.00,,,0.00,meteohub,2013-06-05 18:22:00,
2013-06-05 14:28:00,71.8,53.8,30.19,WSW,248,15.0,17.0,53,0.00,,,0.00,meteohub,2013-06-05 18:28:00,
2013-06-05 14:33:00,72.0,54.0,30.19,West,270,13.0,17.0,53,0.00,,,0.00,meteohub,2013-06-05 18:33:00,
2013-06-05 14:38:00,71.8,53.8,30.19,SSW,203,11.0,17.0,53,0.00,,,0.00,meteohub,2013-06-05 18:38:00,
2013-06-05 14:43:00,72.1,54.1,30.20,SW,225,15.0,16.0,53,0.00,,,0.00,meteohub,2013-06-05 18:43:00,
2013-06-05 14:49:00,72.5,54.9,30.20,SW,225,11.0,16.0,54,0.00,,,0.00,meteohub,2013-06-05 18:49:00,
2013-06-05 14:54:00,72.7,54.5,30.20,WSW,248,14.0,16.0,53,0.00,,,0.00,meteohub,2013-06-05 18:54:00,
2013-06-05 14:59:00,72.9,54.1,30.20,WSW,248,13.0,15.0,52,0.00,,,0.00,meteohub,2013-06-05 18:59:00,
2013-06-05 15:04:00,73.2,54.5,30.19,SW,225,12.0,16.0,52,0.00,,,0.00,meteohub,2013-06-05 19:04:00,
2013-06-05 15:09:00,73.2,54.5,30.19,SSW,203,13.0,16.0,52,0.00,,,0.00,meteohub,2013-06-05 19:09:00,
2013-06-05 15:14:00,73.6,54.9,30.19,SW,225,16.0,16.0,52,0.00,,,0.00,meteohub,2013-06-05 19:14:00,
2013-06-05 15:19:00,73.8,54.5,30.19,SW,225,16.0,16.0,51,0.00,,,0.00,meteohub,2013-06-05 19:19:00,
2013-06-05 15:24:00,73.8,54.5,30.18,SW,225,14.0,16.0,51,0.00,,,0.00,meteohub,2013-06-05 19:24:00,
2013-06-05 15:30:00,73.8,54.0,30.18,WSW,248,14.0,16.0,50,0.00,,,0.00,meteohub,2013-06-05 19:30:00,
2013-06-05 15:35:00,73.8,54.5,30.18,SSW,203,13.0,17.0,51,0.00,,,0.00,meteohub,2013-06-05 19:35:00,
2013-06-05 15:40:00,73.9,55.2,30.18,SW,225,13.0,17.0,52,0.00,,,0.00,meteohub,2013-06-05 19:40:00,
2013-06-05 15:45:00,74.5,55.2,30.17,WSW,248,15.0,15.0,51,0.00,,,0.00,meteohub,2013-06-05 19:45:00,
2013-06-05 15:50:00,74.5,55.2,30.17,SSW,203,13.0,15.0,51,0.00,,,0.00,meteohub,2013-06-05 19:50:00,
2013-06-05 15:55:00,74.8,55.6,30.17,SW,225,9.0,15.0,51,0.00,,,0.00,meteohub,2013-06-05 19:55:00,
2013-06-05 16:01:00,75.7,56.8,30.17,SW,225,12.0,15.0,52,0.00,,,0.00,meteohub,2013-06-05 20:01:00,
2013-06-05 16:06:00,75.6,56.7,30.16,SW,225,14.0,14.0,52,0.00,,,0.00,meteohub,2013-06-05 20:06:00,
2013-06-05 16:11:00,75.7,56.8,30.16,SW,225,14.0,14.0,52,0.00,,,0.00,meteohub,2013-06-05 20:11:00,
2013-06-05 16:17:00,75.9,56.5,30.16,West,270,13.0,14.0,51,0.00,,,0.00,meteohub,2013-06-05 20:17:00,
2013-06-05 16:22:00,75.9,56.5,30.16,SW,225,15.0,15.0,51,0.00,,,0.00,meteohub,2013-06-05 20:22:00,
2013-06-05 16:27:00,75.9,56.5,30.16,SSW,203,14.0,15.0,51,0.00,,,0.00,meteohub,2013-06-05 20:27:00,
2013-06-05 16:32:00,76.1,56.7,30.16,South,180,13.0,15.0,51,0.00,,,0.00,meteohub,2013-06-05 20:32:00,
2013-06-05 16:37:00,76.1,56.7,30.16,SW,225,14.0,15.0,51,0.00,,,0.00,meteohub,2013-06-05 20:37:00,
2013-06-05 16:42:00,75.9,57.0,30.16,West,270,12.0,14.0,52,0.00,,,0.00,meteohub,2013-06-05 20:42:00,
2013-06-05 16:47:00,75.7,57.4,30.16,WSW,248,12.0,14.0,53,0.00,,,0.00,meteohub,2013-06-05 20:47:00,
2013-06-05 16:53:00,75.7,57.4,30.16,SW,225,12.0,14.0,53,0.00,,,0.00,meteohub,2013-06-05 20:53:00,
2013-06-05 16:58:00,75.7,57.4,30.16,WSW,248,15.0,15.0,53,0.00,,,0.00,meteohub,2013-06-05 20:58:00,
2013-06-05 17:03:00,75.6,57.2,30.17,SW,225,13.0,13.0,53,0.00,,,0.00,meteohub,2013-06-05 21:03:00,
2013-06-05 17:08:00,75.2,56.3,30.17,NW,315,13.0,15.0,52,0.00,,,0.00,meteohub,2013-06-05 21:08:00,
2013-06-05 17:13:00,75.4,57.0,30.17,WSW,248,15.0,15.0,53,0.00,,,0.00,meteohub,2013-06-05 21:13:00,
2013-06-05 17:19:00,75.4,57.0,30.17,WSW,248,11.0,14.0,53,0.00,,,0.00,meteohub,2013-06-05 21:19:00,
2013-06-05 17:24:00,75.2,56.8,30.17,SW,225,11.0,15.0,53,0.00,,,0.00,meteohub,2013-06-05 21:24:00,
2013-06-05 17:29:00,75.0,56.1,30.17,West,270,9.0,15.0,52,0.00,,,0.00,meteohub,2013-06-05 21:29:00,
2013-06-05 17:34:00,75.0,56.1,30.17,SW,225,15.0,15.0,52,0.00,,,0.00,meteohub,2013-06-05 21:34:00,
2013-06-05 17:40:00,74.8,56.1,30.17,SW,225,17.0,17.0,52,0.00,,,0.00,meteohub,2013-06-05 21:40:00,
2013-06-05 17:45:00,74.3,56.1,30.17,WSW,248,13.0,17.0,53,0.00,,,0.00,meteohub,2013-06-05 21:45:00,
2013-06-05 17:50:00,73.9,56.3,30.17,SW,225,10.0,17.0,54,0.00,,,0.00,meteohub,2013-06-05 21:50:00,
2013-06-05 17:55:00,73.8,56.7,30.17,SW,225,13.0,17.0,55,0.00,,,0.00,meteohub,2013-06-05 21:55:00,
2013-06-05 18:00:00,73.2,56.1,30.17,WSW,248,11.0,17.0,55,0.00,,,0.00,meteohub,2013-06-05 22:00:00,
2013-06-05 18:06:00,73.2,57.0,30.17,WSW,248,9.0,17.0,57,0.00,,,0.00,meteohub,2013-06-05 22:06:00,
2013-06-05 18:11:00,73.2,56.1,30.17,WSW,248,15.0,17.0,55,0.00,,,0.00,meteohub,2013-06-05 22:11:00,
2013-06-05 18:16:00,73.2,56.7,30.17,WSW,248,13.0,15.0,56,0.00,,,0.00,meteohub,2013-06-05 22:16:00,
2013-06-05 18:21:00,72.7,55.6,30.17,WSW,248,13.0,19.0,55,0.00,,,0.00,meteohub,2013-06-05 22:21:00,
2013-06-05 18:27:00,72.1,55.0,30.16,SW,225,13.0,19.0,55,0.00,,,0.00,meteohub,2013-06-05 22:27:00,
2013-06-05 18:32:00,71.4,55.4,30.16,SW,225,16.0,19.0,57,0.00,,,0.00,meteohub,2013-06-05 22:32:00,
2013-06-05 18:37:00,71.1,55.6,30.16,WSW,248,9.0,16.0,58,0.00,,,0.00,meteohub,2013-06-05 22:37:00,
2013-06-05 18:42:00,70.3,55.4,30.16,WSW,248,14.0,16.0,59,0.00,,,0.00,meteohub,2013-06-05 22:42:00,
2013-06-05 18:47:00,69.6,54.7,30.16,WSW,248,16.0,16.0,59,0.00,,,0.00,meteohub,2013-06-05 22:47:00,
2013-06-05 18:52:00,69.1,55.0,30.16,SW,225,17.0,17.0,61,0.00,,,0.00,meteohub,2013-06-05 22:52:00,
2013-06-05 18:57:00,68.5,55.0,30.16,SW,225,13.0,17.0,62,0.00,,,0.00,meteohub,2013-06-05 22:57:00,
2013-06-05 19:02:00,67.3,54.3,30.16,SW,225,9.0,17.0,63,0.00,,,0.00,meteohub,2013-06-05 23:02:00,
2013-06-05 19:07:00,66.7,54.1,30.16,WSW,248,18.0,18.0,64,0.00,,,0.00,meteohub,2013-06-05 23:07:00,
2013-06-05 19:12:00,66.0,54.3,30.16,SW,225,10.0,17.0,66,0.00,,,0.00,meteohub,2013-06-05 23:12:00,
2013-06-05 19:17:00,65.7,54.0,30.16,SW,225,15.0,18.0,66,0.00,,,0.00,meteohub,2013-06-05 23:17:00,
2013-06-05 19:23:00,65.1,54.0,30.18,SW,225,10.0,18.0,67,0.00,,,0.00,meteohub,2013-06-05 23:23:00,
2013-06-05 19:28:00,64.9,53.8,30.18,WSW,248,8.0,17.0,67,0.00,,,0.00,meteohub,2013-06-05 23:28:00,
2013-06-05 19:33:00,64.8,53.6,30.18,WSW,248,13.0,17.0,67,0.00,,,0.00,meteohub,2013-06-05 23:33:00,
2013-06-05 19:38:00,64.9,54.1,30.18,WSW,248,14.0,16.0,68,0.00,,,0.00,meteohub,2013-06-05 23:38:00,
2013-06-05 19:43:00,64.8,54.0,30.18,WSW,248,10.0,14.0,68,0.00,,,0.00,meteohub,2013-06-05 23:43:00,
2013-06-05 19:49:00,64.4,54.0,30.18,WSW,248,8.0,14.0,69,0.00,,,0.00,meteohub,2013-06-05 23:49:00,
2013-06-05 19:54:00,63.7,53.8,30.18,WSW,248,11.0,14.0,70,0.00,,,0.00,meteohub,2013-06-05 23:54:00,
2013-06-05 19:59:00,63.5,54.0,30.18,WSW,248,11.0,14.0,71,0.00,,,0.00,meteohub,2013-06-05 23:59:00,
2013-06-05 20:04:00,63.1,54.0,30.17,WSW,248,13.0,14.0,72,0.00,,,0.00,meteohub,2013-06-06 00:04:00,
2013-06-05 20:10:00,62.4,53.2,30.17,WSW,248,8.0,13.0,72,0.00,,,0.00,meteohub,2013-06-06 00:10:00,
2013-06-05 20:15:00,62.2,53.1,30.17,SW,225,11.0,13.0,72,0.00,,,0.00,meteohub,2013-06-06 00:15:00,
2013-06-05 20:20:00,61.9,53.1,30.17,WSW,248,10.0,13.0,73,0.00,,,0.00,meteohub,2013-06-06 00:20:00,
2013-06-05 20:25:00,61.7,53.2,30.17,WSW,248,7.0,11.0,74,0.00,,,0.00,meteohub,2013-06-06 00:25:00,
2013-06-05 20:30:00,61.5,53.2,30.17,WSW,248,8.0,11.0,74,0.00,,,0.00,meteohub,2013-06-06 00:30:00,
2013-06-05 20:35:00,61.3,53.1,30.17,WSW,248,7.0,11.0,74,0.00,,,0.00,meteohub,2013-06-06 00:35:00,
2013-06-05 20:40:00,61.0,52.7,30.17,SW,225,9.0,9.0,74,0.00,,,0.00,meteohub,2013-06-06 00:40:00,
2013-06-05 20:45:00,61.0,53.1,30.17,WSW,248,9.0,10.0,75,0.00,,,0.00,meteohub,2013-06-06 00:45:00,
2013-06-05 20:51:00,60.8,52.9,30.17,WNW,293,10.0,11.0,75,0.00,,,0.00,meteohub,2013-06-06 00:51:00,
2013-06-05 20:56:00,60.6,53.1,30.17,WSW,248,10.0,11.0,76,0.00,,,0.00,meteohub,2013-06-06 00:56:00,
2013-06-05 21:01:00,60.6,53.1,30.17,WSW,248,9.0,11.0,76,0.00,,,0.00,meteohub,2013-06-06 01:01:00,
2013-06-05 21:06:00,60.3,53.1,30.18,WSW,248,10.0,10.0,77,0.00,,,0.00,meteohub,2013-06-06 01:06:00,
2013-06-05 21:11:00,60.1,53.2,30.18,SW,225,10.0,10.0,78,0.00,,,0.00,meteohub,2013-06-06 01:11:00,
2013-06-05 21:17:00,60.1,53.2,30.18,WSW,248,9.0,10.0,78,0.00,,,0.00,meteohub,2013-06-06 01:17:00,
2013-06-05 21:22:00,59.9,53.1,30.18,WSW,248,12.0,12.0,78,0.00,,,0.00,meteohub,2013-06-06 01:22:00,
2013-06-05 21:27:00,59.9,53.4,30.18,SW,225,12.0,12.0,79,0.00,,,0.00,meteohub,2013-06-06 01:27:00,
2013-06-05 21:32:00,59.9,53.4,30.18,SW,225,9.0,12.0,79,0.00,,,0.00,meteohub,2013-06-06 01:32:00,
2013-06-05 21:37:00,59.5,53.4,30.18,WSW,248,9.0,12.0,80,0.00,,,0.00,meteohub,2013-06-06 01:37:00,
2013-06-05 21:42:00,59.5,53.4,30.18,West,270,9.0,12.0,80,0.00,,,0.00,meteohub,2013-06-06 01:42:00,
2013-06-05 21:47:00,59.4,53.2,30.19,WSW,248,9.0,12.0,80,0.00,,,0.00,meteohub,2013-06-06 01:47:00,
2013-06-05 21:52:00,59.4,53.2,30.19,WSW,248,8.0,12.0,80,0.00,,,0.00,meteohub,2013-06-06 01:52:00,
2013-06-05 21:57:00,59.2,53.4,30.19,WSW,248,9.0,12.0,81,0.00,,,0.00,meteohub,2013-06-06 01:57:00,
2013-06-05 22:02:00,59.0,53.2,30.19,SW,225,8.0,10.0,81,0.00,,,0.00,meteohub,2013-06-06 02:02:00,
2013-06-05 22:07:00,59.2,53.6,30.19,SW,225,9.0,10.0,82,0.00,,,0.00,meteohub,2013-06-06 02:07:00,
2013-06-05 22:12:00,59.2,53.6,30.19,WSW,248,7.0,10.0,82,0.00,,,0.00,meteohub,2013-06-06 02:12:00,
2013-06-05 22:17:00,58.8,53.4,30.19,WSW,248,10.0,10.0,82,0.00,,,0.00,meteohub,2013-06-06 02:17:00,
2013-06-05 22:22:00,58.8,53.4,30.19,WSW,248,9.0,10.0,82,0.00,,,0.00,meteohub,2013-06-06 02:22:00,
2013-06-05 22:27:00,58.8,53.4,30.19,SW,225,11.0,11.0,82,0.00,,,0.00,meteohub,2013-06-06 02:27:00,
2013-06-05 22:33:00,58.6,53.2,30.19,SW,225,9.0,12.0,82,0.00,,,0.00,meteohub,2013-06-06 02:33:00,
2013-06-05 22:38:00,58.6,53.2,30.19,SW,225,9.0,12.0,82,0.00,,,0.00,meteohub,2013-06-06 02:38:00,
2013-06-05 22:43:00,58.6,53.2,30.19,WSW,248,9.0,12.0,82,0.00,,,0.00,meteohub,2013-06-06 02:43:00,
2013-06-05 22:48:00,58.5,53.1,30.19,South,180,7.0,12.0,82,0.00,,,0.00,meteohub,2013-06-06 02:48:00,
2013-06-05 22:53:00,58.5,53.1,30.19,SW,225,8.0,12.0,82,0.00,,,0.00,meteohub,2013-06-06 02:53:00,
2013-06-05 22:59:00,58.3,52.9,30.19,WSW,248,4.0,10.0,82,0.00,,,0.00,meteohub,2013-06-06 02:59:00,
2013-06-05 23:04:00,58.5,53.2,30.19,WSW,248,4.0,9.0,83,0.00,,,0.00,meteohub,2013-06-06 03:04:00,
2013-06-05 23:09:00,58.3,53.1,30.19,SW,225,2.0,9.0,83,0.00,,,0.00,meteohub,2013-06-06 03:09:00,
2013-06-05 23:14:00,58.1,52.9,30.19,West,270,3.0,5.0,83,0.00,,,0.00,meteohub,2013-06-06 03:14:00,
2013-06-05 23:19:00,57.9,52.7,30.19,West,270,5.0,5.0,83,0.00,,,0.00,meteohub,2013-06-06 03:19:00,
2013-06-05 23:24:00,57.9,52.7,30.17,WSW,248,5.0,5.0,83,0.00,,,0.00,meteohub,2013-06-06 03:24:00,
2013-06-05 23:29:00,58.1,52.9,30.17,WSW,248,5.0,5.0,83,0.00,,,0.00,meteohub,2013-06-06 03:29:00,
2013-06-05 23:35:00,57.9,52.7,30.17,WSW,248,6.0,6.0,83,0.00,,,0.00,meteohub,2013-06-06 03:35:00,
2013-06-05 23:40:00,57.7,52.7,30.17,WSW,248,6.0,6.0,83,0.00,,,0.00,meteohub,2013-06-06 03:40:00,
2013-06-05 23:45:00,57.7,52.7,30.19,SW,225,4.0,6.0,83,0.00,,,0.00,meteohub,2013-06-06 03:45:00,
2013-06-05 23:50:00,57.7,52.9,30.19,WSW,248,4.0,6.0,84,0.00,,,0.00,meteohub,2013-06-06 03:50:00,
2013-06-05 23:55:00,57.6,52.7,30.19,WSW,248,3.0,6.0,84,0.00,,,0.00,meteohub,2013-06-06 03:55:00,